Location: Edisto_Beach
(32.4790°N, 80.3350°W)
Time: 20:21:31
(UTC-04:00)

Amateur Radio Satellites - All Passes

Search period start: 01 October 2014 19:51
Search period end: 02 October 2014 19:51
Location: Edisto_Beach, 32.4790°N, 80.3350°W

Satellite Date Start Highest point End Downlink Frequencies (MHz)
Time Altitude Azimuth
JAS-2 01 Oct 19:52:53 19:55:11 13° 268° (W) 19:57:31 435.800 - 435.900 CW/SSB, 435.910 FM
PCSat 01 Oct 19:58:35 20:03:57 65° 248° (WSW) 20:09:17 145.825 MHz
KITSAT 1 01 Oct 20:00:57 20:04:10 13° 320° (NW) 20:07:24 435.175 FM
STRAND 1 01 Oct 20:16:18 20:21:28 86° 284° (WNW) 20:26:37 ?
SO-50 01 Oct 20:38:56 20:42:10 19° 308° (NW) 20:45:29 436.795 FM
ISS 01 Oct 20:41:00 20:41:47 11° 125° (SE) 20:42:34 145.800 FM
UOSAT-12 01 Oct 21:01:26 21:05:56 61° 115° (ESE) 21:10:33 437.025 FM, 437.400 FM
PANSAT 01 Oct 21:13:34 21:17:16 44° 176° (S) 21:20:58 not established
HO-68 01 Oct 21:16:51 21:23:50 62° 71° (ENE) 21:30:52 435.675 MHz FM
Sapphire 01 Oct 21:19:05 21:21:11 12° 257° (WSW) 21:23:16 437.095 MHz 1200 baud AX-25 AFSK
Oscar 11 01 Oct 21:47:13 21:51:00 29° 72° (ENE) 21:54:46 145.825 FM, Beacon 2401.500 USB
FUNcube-1 01 Oct 22:13:27 22:17:03 24° 70° (ENE) 22:20:42 145.950 - 145.970 MHz USB
ISS 01 Oct 22:14:52 22:18:06 50° 318° (NW) 22:21:21 145.800 FM
UKube-1 01 Oct 22:16:44 22:21:04 87° 257° (WSW) 22:25:25 145.840 MHz, 145.915 MHz
Saudisat 1A 01 Oct 22:28:00 22:29:30 11° 48° (NE) 22:30:59 436.775 MHz
UOSAT-12 01 Oct 22:44:05 22:46:29 14° 311° (NW) 22:48:54 437.025 FM, 437.400 FM
PANSAT 01 Oct 22:53:36 22:57:12 38° 189° (S) 23:00:47 not established
ZACube-1 01 Oct 22:57:44 23:02:14 80° 77° (ENE) 23:06:51 437.345 MHz
HO-68 01 Oct 23:06:59 23:11:53 20° 265° (W) 23:16:49 435.675 MHz FM
Oscar 11 01 Oct 23:24:06 23:27:09 19° 265° (W) 23:30:12 145.825 FM, Beacon 2401.500 USB
FUNcube-1 01 Oct 23:49:33 23:53:16 25° 264° (W) 23:57:04 145.950 - 145.970 MHz USB
Saudisat 1A 02 Oct 00:05:06 00:09:29 67° 244° (WSW) 00:13:51 436.775 MHz
RS-15 02 Oct 00:30:23 00:34:10 12° 99° (E) 00:37:54 29.354 - 29.394 USB, Beacon 29.352 USB
PANSAT 02 Oct 00:34:23 00:36:56 17° 201° (SSW) 00:39:29 not established
Oscar 19 02 Oct 01:50:22 01:53:37 17° 94° (E) 01:56:51 437.125 CW, 437.150 USB
KITSAT 1 02 Oct 01:57:56 02:04:53 31° 52° (NE) 02:11:47 435.175 FM
JAS-1B 02 Oct 02:03:16 02:06:29 15° 96° (E) 02:09:51 435.800 - 435.900 CW/SSB
Oscar 16 02 Oct 02:30:11 02:35:09 47° 100° (E) 02:40:03 437.025 USB, Beacon 2401.1428
AO-Echo 02 Oct 02:33:01 02:37:03 23° 96° (E) 02:41:10 ?
RS-15 02 Oct 02:33:36 02:44:42 77° 114° (ESE) 02:55:35 29.354 - 29.394 USB, Beacon 29.352 USB
AO-27 02 Oct 02:42:04 02:46:12 23° 96° (E) 02:50:19 436.795 MHz FM
Gurwin Techsat 1B 02 Oct 03:12:02 03:16:06 22° 95° (E) 03:20:07 435.225 FM
Oscar 19 02 Oct 03:28:15 03:33:06 44° 287° (WNW) 03:37:55 437.125 CW, 437.150 USB
SO-50 02 Oct 03:34:50 03:36:57 13° 48° (NE) 03:39:04 436.795 FM
TMSAT-1 02 Oct 03:39:36 03:44:14 30° 97° (E) 03:48:50 436.925 FM
ITAMSAT 1 02 Oct 03:41:49 03:47:04 84° 284° (WNW) 03:52:17 435.822 SSB
Uribyol 2 02 Oct 03:42:28 03:47:43 78° 284° (WNW) 03:52:55 436.500 FM
JAS-1B 02 Oct 03:51:42 03:57:19 57° 286° (WNW) 04:03:35 435.800 - 435.900 CW/SSB
KITSAT 1 02 Oct 03:52:46 04:00:32 53° 250° (WSW) 04:08:16 435.175 FM
AO-7 02 Oct 03:56:47 03:58:56 11° 92° (E) 04:01:05 29.400 - 29.500 MHz
Oscar 16 02 Oct 04:10:52 04:14:03 17° 294° (WNW) 04:17:14 437.025 USB, Beacon 2401.1428
AO-Echo 02 Oct 04:11:16 04:15:46 33° 289° (WNW) 04:20:21 ?
AO-27 02 Oct 04:21:02 04:25:41 33° 289° (WNW) 04:30:19 436.795 MHz FM
OPAL 02 Oct 04:46:03 04:50:36 32° 68° (ENE) 04:55:10 ?
ISS 02 Oct 04:47:33 04:50:08 21° 36° (NE) 04:52:43 145.800 FM
RS-15 02 Oct 04:49:07 04:58:04 28° 316° (NW) 05:07:02 29.354 - 29.394 USB, Beacon 29.352 USB
Gurwin Techsat 1B 02 Oct 04:51:15 04:56:04 36° 289° (WNW) 05:00:53 435.225 FM
MaSat-1 02 Oct 05:10:59 05:15:26 36° 107° (ESE) 05:19:47 437.345 MHz
SO-50 02 Oct 05:13:09 05:18:00 74° 244° (WSW) 05:22:51 436.795 FM
TMSAT-1 02 Oct 05:19:37 05:23:59 27° 291° (WNW) 05:28:21 436.925 FM
JAS-2 02 Oct 05:21:37 05:22:27 10° 91° (E) 05:23:18 435.800 - 435.900 CW/SSB, 435.910 FM
Uosat F 02 Oct 05:33:12 05:38:12 63° 102° (ESE) 05:43:10 435.120 FM
UOSAT-12 02 Oct 05:36:33 05:39:36 17° 50° (NE) 05:42:37 437.025 FM, 437.400 FM
AO-7 02 Oct 05:44:19 05:52:38 80° 106° (ESE) 06:00:57 29.400 - 29.500 MHz
ISS 02 Oct 06:23:54 06:26:50 29° 230° (SW) 06:29:45 145.800 FM
OPAL 02 Oct 06:25:08 06:29:24 26° 262° (W) 06:33:41 ?
MaSat-1 02 Oct 06:48:16 06:51:55 21° 300° (WNW) 06:55:27 437.345 MHz
JAS-2 02 Oct 07:00:59 07:07:57 79° 103° (ESE) 07:15:36 435.800 - 435.900 CW/SSB, 435.910 FM
Uosat F 02 Oct 07:14:21 07:16:23 12° 296° (WNW) 07:18:26 435.120 FM
UOSAT-12 02 Oct 07:15:28 07:19:59 48° 246° (WSW) 07:24:24 437.025 FM, 437.400 FM
Hamsat 02 Oct 07:17:17 07:21:28 78° 283° (WNW) 07:25:38 145.90 MHz
STRAND 1 02 Oct 07:27:35 07:32:40 85° 76° (ENE) 07:37:48 ?
AO-7 02 Oct 07:39:02 07:44:28 20° 302° (WNW) 07:49:54 29.400 - 29.500 MHz
Sapphire 02 Oct 08:29:15 08:32:30 16° 104° (ESE) 08:35:46 437.095 MHz 1200 baud AX-25 AFSK
SO-67 02 Oct 08:41:29 08:44:50 49° 284° (WNW) 08:48:09 435.3500 MHz FM
JAS-2 02 Oct 08:48:10 08:52:21 17° 295° (WNW) 08:56:45 435.800 - 435.900 CW/SSB, 435.910 FM
HO-68 02 Oct 08:52:35 08:55:48 13° 92° (E) 08:59:01 435.675 MHz FM
PCSat 02 Oct 08:53:01 08:57:44 32° 108° (ESE) 09:02:28 145.825 MHz
RS-15 02 Oct 09:30:10 09:36:09 15° 30° (NNE) 09:42:12 29.354 - 29.394 USB, Beacon 29.352 USB
Sapphire 02 Oct 10:10:11 10:15:25 52° 298° (WNW) 10:20:42 437.095 MHz 1200 baud AX-25 AFSK
UKube-1 02 Oct 10:10:14 10:13:41 23° 97° (E) 10:17:07 145.840 MHz, 145.915 MHz
PCSat 02 Oct 10:36:27 10:41:04 28° 303° (WNW) 10:45:43 145.825 MHz
HO-68 02 Oct 10:36:54 10:44:07 84° 286° (WNW) 10:51:18 435.675 MHz FM
ZACube-1 02 Oct 10:52:36 10:56:08 23° 95° (E) 10:59:36 437.345 MHz
Oscar 11 02 Oct 11:14:50 11:19:08 71° 284° (WNW) 11:23:24 145.825 FM, Beacon 2401.500 USB
RS-15 02 Oct 11:40:35 11:51:35 58° 57° (ENE) 12:03:00 29.354 - 29.394 USB, Beacon 29.352 USB
FUNcube-1 02 Oct 11:42:33 11:47:06 89° 282° (WNW) 11:51:29 145.950 - 145.970 MHz USB
UKube-1 02 Oct 11:46:14 11:49:45 24° 290° (WNW) 11:53:16 145.840 MHz, 145.915 MHz
HO-68 02 Oct 12:27:48 12:30:43 13° 302° (WNW) 12:33:39 435.675 MHz FM
ZACube-1 02 Oct 12:28:44 12:32:26 25° 289° (WNW) 12:36:04 437.345 MHz
JAS-1B 02 Oct 12:48:21 12:48:45 10° 62° (ENE) 12:49:10 435.800 - 435.900 CW/SSB
Oscar 19 02 Oct 13:03:16 13:06:27 17° 66° (ENE) 13:09:37 437.125 CW, 437.150 USB
Oscar 16 02 Oct 13:42:35 13:47:28 43° 72° (ENE) 13:52:22 437.025 USB, Beacon 2401.1428
AO-Echo 02 Oct 13:42:46 13:45:47 17° 68° (ENE) 13:48:49 ?
RS-15 02 Oct 13:53:40 14:03:23 35° 254° (WSW) 14:13:30 29.354 - 29.394 USB, Beacon 29.352 USB
AO-27 02 Oct 13:56:06 14:00:05 23° 68° (ENE) 14:04:05 436.795 MHz FM
Saudisat 1A 02 Oct 14:06:54 14:11:16 85° 297° (WNW) 14:15:42 436.775 MHz
Gurwin Techsat 1B 02 Oct 14:28:55 14:32:59 23° 68° (ENE) 14:37:03 435.225 FM
JAS-1B 02 Oct 14:30:47 14:38:42 79° 75° (ENE) 14:45:18 435.800 - 435.900 CW/SSB
Oscar 19 02 Oct 14:40:20 14:45:20 49° 260° (W) 14:50:22 437.125 CW, 437.150 USB
AO-7 02 Oct 14:51:42 14:54:46 13° 53° (NE) 14:57:50 29.400 - 29.500 MHz
ITAMSAT 1 02 Oct 14:55:12 15:00:22 89° 257° (WSW) 15:05:35 435.822 SSB
Uribyol 2 02 Oct 14:55:41 15:00:51 82° 257° (WSW) 15:06:05 436.500 FM
TMSAT-1 02 Oct 14:56:01 15:00:34 30° 70° (ENE) 15:05:09 436.925 FM
MaSat-1 02 Oct 15:07:36 15:09:43 17° 58° (ENE) 15:11:39 437.345 MHz
AO-Echo 02 Oct 15:19:55 15:24:14 37° 261° (W) 15:28:36 ?
Oscar 16 02 Oct 15:23:31 15:26:56 18° 266° (W) 15:30:23 437.025 USB, Beacon 2401.1428
AO-27 02 Oct 15:34:42 15:39:21 34° 262° (W) 15:44:03 436.795 MHz FM
Gurwin Techsat 1B 02 Oct 16:07:51 16:12:40 36° 262° (W) 16:17:32 435.225 FM
KITSAT 1 02 Oct 16:20:53 16:28:07 37° 107° (ESE) 16:35:21 435.175 FM
JAS-1B 02 Oct 16:25:40 16:29:26 14° 264° (W) 16:32:56 435.800 - 435.900 CW/SSB
TMSAT-1 02 Oct 16:36:02 16:40:24 26° 264° (W) 16:44:48 436.925 FM
AO-7 02 Oct 16:37:53 16:46:07 72° 70° (ENE) 16:54:21 29.400 - 29.500 MHz
Uosat F 02 Oct 16:41:57 16:46:46 52° 73° (ENE) 16:51:38 435.120 FM
MaSat-1 02 Oct 16:44:45 16:45:48 11° 259° (WSW) 16:46:48 437.345 MHz
Oscar 10/S400 02 Oct 17:00:18 17:18:47 65° 160° (SSE) 17:58:03 145.825 - 145.975 CW/USB, Beacon 145.810 USB
OPAL 02 Oct 17:03:09 17:04:34 11° 94° (E) 17:06:00 ?
JAS-2 02 Oct 17:12:10 17:15:08 16° 64° (ENE) 17:18:09 435.800 - 435.900 CW/SSB, 435.910 FM
PCSat 02 Oct 17:47:48 17:49:16 11° 48° (NE) 17:50:44 145.825 MHz
Hamsat 02 Oct 18:05:54 18:09:56 40° 74° (ENE) 18:13:58 145.90 MHz
KITSAT 1 02 Oct 18:15:48 18:23:19 42° 304° (WNW) 18:30:54 435.175 FM
Uosat F 02 Oct 18:23:26 18:25:48 13° 267° (W) 18:28:10 435.120 FM
AO-7 02 Oct 18:33:50 18:39:24 20° 265° (W) 18:44:59 29.400 - 29.500 MHz
OPAL 02 Oct 18:38:48 18:43:48 63° 288° (WNW) 18:48:43 ?
JAS-2 02 Oct 18:54:47 18:59:44 48° 261° (W) 19:04:53 435.800 - 435.900 CW/SSB, 435.910 FM
Sapphire 02 Oct 19:02:42 19:07:56 47° 61° (ENE) 19:13:07 437.095 MHz 1200 baud AX-25 AFSK
PANSAT 02 Oct 19:08:49 19:12:07 27° 165° (SSE) 19:15:25 not established
SO-67 02 Oct 19:10:14 19:12:57 22° 73° (ENE) 19:15:41 435.3500 MHz FM
SO-50 02 Oct 19:23:41 19:28:06 74° 299° (WNW) 19:32:40 436.795 FM
PCSat 02 Oct 19:27:58 19:33:25 88° 65° (ENE) 19:38:49 145.825 MHz
Hamsat 02 Oct 19:43:55 19:46:00 13° 267° (W) 19:48:05 145.90 MHz
UOSAT-12 02 Oct 19:44:59 19:46:49 12° 107° (ESE) 19:48:40 437.025 FM, 437.400 FM
